When you browse on this site, cookies collect data to enhance your experience and personalize the content and advertising you see.
Visit our Privacy Policy to learn more. By continuing to use the site, you agree to this use of cookies and data.
  • In United Kingdom
  • List of Countries
  • For 7 days
  • Water Temperature
  • Weather Map
  • Weather Widgets
  • user-avatar
    Login

    Hourly Weather Klagenfurt

    Today, 1 June, Monday

    Time Temperature Precipitation Wind Pressure Humidity
    00:00 +9°C° 0.1 mm 1 mps 691 mmHg 85%
    01:00 +8°C° 0 mm 1 mps 691 mmHg 88%
    02:00 +8°C° 0 mm 1 mps 690 mmHg 88%
    03:00 +8°C° 0 mm 1 mps 690 mmHg 88%
    04:00 +8°C° 0 mm 1 mps 690 mmHg 88%
    05:00 +9°C° 0 mm 1 mps 690 mmHg 83%
    06:00 +11°C° 0 mm 1 mps 691 mmHg 78%
    07:00 +13°C° 0 mm 1 mps 692 mmHg 73%
    08:00 +15°C° 0 mm 1 mps 692 mmHg 63%
    09:00 +18°C° 0 mm 1 mps 692 mmHg 53%
    10:00 +19°C° 0 mm 2 mps 692 mmHg 44%
    11:00 +19°C° 0 mm 2 mps 692 mmHg 42%
    12:00 +20°C° 0 mm 2 mps 692 mmHg 41%
    13:00 +21°C° 0 mm 2 mps 692 mmHg 40%
    14:00 +22°C° 0 mm 1 mps 692 mmHg 42%
    15:00 +21°C° 0 mm 1 mps 692 mmHg 45%
    16:00 +21°C° 0 mm 1 mps 692 mmHg 47%
    17:00 +19°C° 0.1 mm 1 mps 691 mmHg 57%
    18:00 +18°C° 0.1 mm 1 mps 691 mmHg 67%
    19:00 +15°C° 0.1 mm 1 mps 691 mmHg 78%
    20:00 +14°C° 0 mm 1 mps 691 mmHg 80%
    21:00 +12°C° 0 mm 1 mps 691 mmHg 82%
    22:00 +11°C° 0 mm 1 mps 691 mmHg 84%
    23:00 +11°C° 0 mm 1 mps 690 mmHg 86%

    Tomorrow, 2 June, Tuesday

    Time Temperature Precipitation Wind Pressure Humidity
    00:00 +10°C° 0 mm 1 mps 690 mmHg 88%
    01:00 +9°C° 0 mm 0 mps 690 mmHg 90%
    02:00 +8°C° 0 mm 0 mps 690 mmHg 91%
    03:00 +8°C° 0 mm 0 mps 690 mmHg 92%
    04:00 +7°C° 0 mm 0 mps 689 mmHg 93%
    05:00 +9°C° 0 mm 0 mps 690 mmHg 88%
    06:00 +12°C° 0 mm 1 mps 690 mmHg 83%
    07:00 +14°C° 0 mm 1 mps 690 mmHg 78%
    08:00 +15°C° 0 mm 1 mps 690 mmHg 71%
    09:00 +18°C° 0 mm 1 mps 691 mmHg 63%
    10:00 +20°C° 0 mm 1 mps 691 mmHg 56%
    11:00 +20°C° 0.5 mm 1 mps 690 mmHg 58%
    12:00 +21°C° 0.5 mm 1 mps 690 mmHg 61%
    13:00 +21°C° 0.5 mm 1 mps 690 mmHg 63%
    14:00 +20°C° 1.1 mm 1 mps 689 mmHg 66%
    15:00 +20°C° 1.1 mm 1 mps 689 mmHg 69%
    16:00 +19°C° 1.1 mm 1 mps 688 mmHg 72%
    17:00 +18°C° 0.7 mm 1 mps 688 mmHg 77%
    18:00 +15°C° 0.7 mm 1 mps 688 mmHg 82%
    19:00 +14°C° 0.7 mm 1 mps 687 mmHg 87%
    20:00 +13°C° 0.3 mm 1 mps 687 mmHg 88%
    21:00 +11°C° 0.3 mm 1 mps 687 mmHg 90%
    22:00 +10°C° 0.3 mm 1 mps 687 mmHg 91%
    23:00 +9°C° 0 mm 0 mps 687 mmHg 92%

    Day after tomorrow, 3 June, Wednesday

    Time Temperature Precipitation Wind Pressure Humidity
    00:00 +8°C° 0 mm 0 mps 687 mmHg 93%
    01:00 +8°C° 0 mm 0 mps 687 mmHg 93%
    02:00 +7°C° 0 mm 0 mps 686 mmHg 94%
    03:00 +7°C° 0 mm 0 mps 686 mmHg 94%
    04:00 +7°C° 0 mm 0 mps 686 mmHg 95%
    05:00 +8°C° 0 mm 0 mps 686 mmHg 92%
    06:00 +10°C° 0 mm 0 mps 686 mmHg 89%
    07:00 +12°C° 0 mm 0 mps 686 mmHg 86%
    08:00 +14°C° 0 mm 0 mps 686 mmHg 76%
    09:00 +16°C° 0 mm 0 mps 686 mmHg 66%
    10:00 +21°C° 0 mm 1 mps 687 mmHg 56%
    11:00 +21°C° 0.3 mm 1 mps 686 mmHg 58%
    12:00 +21°C° 0.3 mm 1 mps 686 mmHg 61%
    13:00 +20°C° 0.3 mm 2 mps 685 mmHg 63%
    14:00 +20°C° 0.2 mm 2 mps 685 mmHg 62%
    15:00 +20°C° 0.2 mm 2 mps 684 mmHg 60%
    16:00 +20°C° 0.2 mm 2 mps 684 mmHg 59%
    17:00 +18°C° 0.1 mm 2 mps 684 mmHg 67%
    18:00 +16°C° 0.1 mm 2 mps 683 mmHg 76%
    19:00 +15°C° 0.1 mm 1 mps 683 mmHg 84%
    20:00 +14°C° 0.1 mm 1 mps 683 mmHg 88%
    21:00 +12°C° 0.1 mm 1 mps 682 mmHg 91%
    22:00 +11°C° 0.1 mm 1 mps 682 mmHg 94%
    23:00 +11°C° 0 mm 1 mps 682 mmHg 94%

    4 June, Thursday

    Time Temperature Precipitation Wind Pressure Humidity
    00:00 +10°C° 0 mm 1 mps 682 mmHg 95%
    01:00 +10°C° 0 mm 1 mps 681 mmHg 95%
    02:00 +10°C° 0 mm 1 mps 681 mmHg 96%
    03:00 +10°C° 0 mm 1 mps 681 mmHg 96%
    04:00 +10°C° 0 mm 1 mps 680 mmHg 96%
    05:00 +11°C° 0.1 mm 1 mps 680 mmHg 95%
    06:00 +12°C° 0.1 mm 1 mps 680 mmHg 93%
    07:00 +13°C° 0.1 mm 1 mps 680 mmHg 92%
    08:00 +13°C° 0.3 mm 1 mps 680 mmHg 91%
    09:00 +14°C° 0.3 mm 2 mps 681 mmHg 91%
    10:00 +14°C° 0.3 mm 2 mps 681 mmHg 91%
    11:00 +14°C° 0.6 mm 2 mps 680 mmHg 91%
    12:00 +14°C° 0.6 mm 2 mps 680 mmHg 92%
    13:00 +14°C° 0.6 mm 2 mps 680 mmHg 92%
    14:00 +14°C° 1 mm 2 mps 679 mmHg 93%
    15:00 +14°C° 1 mm 2 mps 679 mmHg 94%
    16:00 +14°C° 1 mm 2 mps 678 mmHg 95%
    17:00 +13°C° 1.4 mm 2 mps 678 mmHg 96%
    18:00 +13°C° 1.4 mm 2 mps 678 mmHg 97%
    19:00 +13°C° 1.4 mm 2 mps 678 mmHg 98%
    20:00 +13°C° 2 mm 2 mps 678 mmHg 98%
    21:00 +13°C° 2 mm 1 mps 677 mmHg 98%
    22:00 +13°C° 2 mm 1 mps 677 mmHg 98%
    23:00 +13°C° 1.4 mm 1 mps 677 mmHg 98%

    5 June, Friday

    Time Temperature Precipitation Wind Pressure Humidity
    00:00 +13°C° 1.4 mm 1 mps 677 mmHg 98%
    01:00 +13°C° 1.4 mm 1 mps 676 mmHg 98%
    02:00 +13°C° 1.3 mm 2 mps 676 mmHg 99%
    03:00 +13°C° 1.3 mm 2 mps 676 mmHg 99%
    04:00 +13°C° 1.3 mm 2 mps 675 mmHg 99%
    05:00 +13°C° 2.3 mm 2 mps 676 mmHg 99%
    06:00 +13°C° 2.3 mm 2 mps 676 mmHg 98%
    07:00 +13°C° 2.3 mm 2 mps 676 mmHg 98%
    08:00 +13°C° 1.1 mm 1 mps 676 mmHg 97%
    09:00 +13°C° 1.1 mm 1 mps 676 mmHg 96%
    10:00 +13°C° 1.1 mm 1 mps 677 mmHg 95%
    11:00 +13°C° 1.1 mm 1 mps 677 mmHg 94%
    12:00 +12°C° 1.1 mm 1 mps 677 mmHg 94%
    13:00 +12°C° 1.1 mm 1 mps 678 mmHg 93%
    14:00 +12°C° 1 mm 1 mps 678 mmHg 92%
    15:00 +10°C° 1 mm 2 mps 679 mmHg 90%
    16:00 +10°C° 1 mm 2 mps 679 mmHg 89%
    17:00 +10°C° 0.2 mm 2 mps 680 mmHg 89%
    18:00 +9°C° 0.2 mm 2 mps 680 mmHg 89%
    19:00 +10°C° 0.2 mm 1 mps 681 mmHg 89%
    20:00 +9°C° 0 mm 1 mps 682 mmHg 88%
    21:00 +9°C° 0 mm 1 mps 682 mmHg 88%
    22:00 +8°C° 0 mm 1 mps 683 mmHg 87%
    23:00 +7°C° 0 mm 1 mps 683 mmHg 87%

    6 June, Saturday

    Time Temperature Precipitation Wind Pressure Humidity
    00:00 +7°C° 0 mm 1 mps 684 mmHg 87%
    01:00 +7°C° 0 mm 1 mps 684 mmHg 87%
    02:00 +6°C° 0 mm 1 mps 684 mmHg 86%
    03:00 +6°C° 0 mm 1 mps 685 mmHg 86%
    04:00 +6°C° 0 mm 1 mps 685 mmHg 86%
    05:00 +7°C° 0 mm 1 mps 685 mmHg 80%
    06:00 +8°C° 0 mm 0 mps 686 mmHg 75%
    07:00 +10°C° 0 mm 0 mps 686 mmHg 70%
    08:00 +12°C° 0 mm 0 mps 687 mmHg 61%
    09:00 +16°C° 0 mm 1 mps 687 mmHg 52%
    10:00 +19°C° 0 mm 1 mps 688 mmHg 43%
    11:00 +20°C° 0 mm 1 mps 688 mmHg 42%
    12:00 +20°C° 0 mm 1 mps 688 mmHg 41%
    13:00 +20°C° 0 mm 2 mps 688 mmHg 39%
    14:00 +20°C° 0 mm 2 mps 688 mmHg 41%
    15:00 +20°C° 0 mm 2 mps 687 mmHg 43%
    16:00 +19°C° 0 mm 2 mps 687 mmHg 44%
    17:00 +18°C° 0 mm 2 mps 687 mmHg 54%
    18:00 +16°C° 0 mm 2 mps 687 mmHg 63%
    19:00 +14°C° 0 mm 1 mps 686 mmHg 73%
    20:00 +13°C° 0 mm 1 mps 686 mmHg 77%
    21:00 +11°C° 0 mm 1 mps 686 mmHg 82%
    22:00 +9°C° 0 mm 1 mps 686 mmHg 86%
    23:00 +9°C° 0 mm 1 mps 686 mmHg 84%
    Show more